Location: Belfast
(54.5830°N, 5.9330°W)
Time: 05:48:27
(UTC+01:00)

ISS - Pass Details

Date: 16 March 2018
Orbit: 403 x 408 km, 51.6° (Epoch: 21 September)

Event Time Altitude Azimuth Distance (km) Brightness Sun altitude
Exits shadow 04:10:20 23° 142° (SE) 936 -1.9 -21.2°
Drops below altitude 10° 04:11:53 10° 126° (SE) 1,488 -0.7 -21.0°
Sets 04:14:02 0° 118° (ESE) 2,345 0.5 -20.7°
